Location: Santa Giusta
(39.8800°N, 8.6069°E)
Time: 16:05:33
(UTC+00:00)

Spot 1 - Pass Details

Date: 02 February 2023
Orbit: 575 x 772 km, 98.8° (Epoch: 01 April)

Event Time Altitude Azimuth Distance (km) Brightness Sun altitude
Exits shadow 18:17:52 26° 35° (NE) 1,142 5.0 -17.9°
Maximum altitude 18:19:54 54° 101° (ESE) 703 3.9 -18.3°
Drops below altitude 10° 18:23:52 10° 180° (S) 1,882 6.6 -19.1°
Sets 18:26:03 0° 184° (S) 2,786 7.5 -19.5°
